Regional Weather Roundup
Issued by NWS

Home | Current Version | Previous Version | Graphics & Text | Print | Product List | Glossary On
Versions: 1 2 3 4 5 6 7 8 9 10 11 12 13 14 15 16 17 18 19 20 21 22 23 24 25 26 27 28 29 30 31 32 33 34 35 36 37 38 39 40 41 42 43 44 45 46 47 48 49 50
000
ASUS43 KLMK 050910
RWRKY
KENTUCKY REGIONAL WEATHER ROUNDUP
NATIONAL WEATHER SERVICE LOUISVILLE KY
400 AM EST MON DEC 05 2016

NOTE "FAIR" INDICATES FEW OR NO CLOUDS BELOW 12,000 FEET
WITH NO SIGNIFICANT WEATHER AND/OR OBSTRUCTIONS TO VISIBILITY.

KYZ001>023-026-027-061>063-070>075-051000-
WESTERN AND SOUTH CENTRAL KENTUCKY

CITY           SKY/WX    TMP DP  RH WIND       PRES   REMARKS
PADUCAH        CLOUDY    41  35  79 N5        30.07F
HENDERSON      CLOUDY    39  32  75 N5        30.09S
OWENSBORO      CLOUDY    40  34  79 NW7       30.10R
HOPKINSVILLE   CLOUDY    41  36  83 N5        30.07R
BOWLING GREEN  CLOUDY    42  37  82 NW3       30.08S
GLASGOW        CLOUDY    41  41  99 NW3       30.07R
$$

KYZ024-025-028>034-038-045-046-053-051000-
NORTH CENTRAL KENTUCKY

CITY           SKY/WX    TMP DP  RH WIND       PRES   REMARKS
LOUISVILLE/SDF CLOUDY    41  34  76 NW8       30.07R
LOUISVILLE/LOU CLOUDY    41  35  79 NW8       30.07R
FORT KNOX      CLOUDY    38  35  86 W6        30.05R WCI  34
$$

KYZ035>037-039>044-047>052-055>060-089>105-051000-
NORTHEAST KENTUCKY

CITY           SKY/WX    TMP DP  RH WIND       PRES   REMARKS
LEXINGTON      CLOUDY    42  37  82 W7        30.04S
COVINGTON      CLOUDY    39  36  89 W9        30.03R WCI  33
FRANKFORT      CLOUDY    42  36  79 W3        30.04R
$$

KYZ054-064>069-076>088-106>120-051000-
SOUTHEAST KENTUCKY

CITY           SKY/WX    TMP DP  RH WIND       PRES   REMARKS
JACKSON        CLOUDY    45  42  89 W8        30.01S
LONDON         CLOUDY    45  41  86 NW7       30.03R
SOMERSET       CLOUDY    43  43 100 NW5       30.06R
MIDDLESBORO    CLOUDY    46  46 100 CALM      30.02S FOG
MONTICELLO     CLOUDY    45  43  93 W3        30.07R
$$





USA.gov is the U.S. government's official web portal to all federal, state and local government web resources and services.